"Period start","avg(HW err(1)/warn(2) (#))","avg(Visibility (m))","avg(Weather code (#))","avg(Precip intensity (mm/h))","min(HW err(1)/warn(2) (#))","max(HW err(1)/warn(2) (#))","std(HW err(1)/warn(2) (#))","med(HW err(1)/warn(2) (#))","min(Visibility (m))","max(Visibility (m))","std(Visibility (m))","med(Visibility (m))","min(Weather code (#))","max(Weather code (#))","std(Weather code (#))","med(Weather code (#))","min(Precip intensity (mm/h))","max(Precip intensity (mm/h))","std(Precip intensity (mm/h))","med(Precip intensity (mm/h))"
2017-07-25 00:00:00,0,38810,0,0.00,0,2,1,0,28714,50000,8331,39644,0,0,0,0,0.00,0.00,0.00,0.00
2017-07-25 00:10:00,0,40816,0,0.00,0,0,0,0,29264,50000,6870,41052,0,0,0,0,0.00,0.00,0.00,0.00
2017-07-25 00:20:00,0,39588,0,0.00,0,0,0,0,19889,49754,8932,42349,0,0,0,0,0.00,0.00,0.00,0.00
2017-07-25 00:30:00,0,41327,0,0.00,0,0,0,0,27604,50000,7513,42421,0,0,0,0,0.00,0.00,0.00,0.00
2017-07-25 00:40:00,0,38325,0,0.00,0,0,0,0,30696,50000,5637,37376,0,0,0,0,0.00,0.00,0.00,0.00
2017-07-25 00:50:00,0,40107,0,0.00,0,0,0,0,29268,50000,7573,42055,0,0,0,0,0.00,0.00,0.00,0.00
2017-07-25 01:00:00,0,40093,0,0.00,0,0,0,0,21454,50000,8704,41979,0,0,0,0,0.00,0.00,0.00,0.00
2017-07-25 01:10:00,0,46025,0,0.00,0,0,0,0,37608,50000,3948,45786,0,0,0,0,0.00,0.00,0.00,0.00
2017-07-25 01:20:00,0,42249,0,0.00,0,0,0,0,27016,50000,9220,47974,0,0,0,0,0.00,0.00,0.00,0.00
2017-07-25 01:30:00,0,36792,0,0.00,0,0,0,0,23554,50000,10539,31844,0,0,0,0,0.00,0.00,0.00,0.00
2017-07-25 01:40:00,0,46152,0,0.00,0,0,0,0,35123,50000,5740,50000,0,0,0,0,0.00,0.00,0.00,0.00
2017-07-25 01:50:00,0,38583,0,0.00,0,0,0,0,26695,48999,7863,38404,0,0,0,0,0.00,0.00,0.00,0.00
2017-07-25 02:00:00,0,40816,0,0.00,0,0,0,0,29486,50000,8023,40336,0,0,0,0,0.00,0.00,0.00,0.00
2017-07-25 02:10:00,0,34768,0,0.00,0,0,0,0,23340,50000,9160,33062,0,0,0,0,0.00,0.00,0.00,0.00
2017-07-25 02:20:00,0,40949,0,0.00,0,0,0,0,34844,45477,3515,41067,0,0,0,0,0.00,0.00,0.00,0.00
2017-07-25 02:30:00,0,46429,0,0.00,0,0,0,0,37267,50000,4325,48418,0,0,0,0,0.00,0.00,0.00,0.00
2017-07-25 02:40:00,0,44147,0,0.00,0,0,0,0,33136,50000,6104,45680,0,0,0,0,0.00,0.00,0.00,0.00
2017-07-25 02:50:00,0,38119,0,0.00,0,0,0,0,28347,50000,7742,37200,0,0,0,0,0.00,0.00,0.00,0.00
2017-07-25 03:00:00,0,44551,0,0.00,0,0,0,0,35914,50000,5290,46523,0,0,0,0,0.00,0.00,0.00,0.00
2017-07-25 03:10:00,0,47835,0,0.00,0,0,0,0,41729,50000,2789,49710,0,0,0,0,0.00,0.00,0.00,0.00
2017-07-25 03:20:00,0,42334,0,0.00,0,0,0,0,25582,50000,7988,42900,0,0,0,0,0.00,0.00,0.00,0.00
2017-07-25 03:30:00,0,40103,45,0.26,0,0,0,0,21268,50000,9714,43140,0,61,24,61,0.00,1.40,0.42,0.10
2017-07-25 03:40:00,0,48433,0,0.00,0,0,0,0,42331,50000,2575,50000,0,0,0,0,0.00,0.00,0.00,0.00
2017-07-25 03:50:00,0,46637,0,0.00,0,0,0,0,36633,50000,4588,49218,0,0,0,0,0.00,0.00,0.00,0.00
2017-07-25 04:00:00,0,48742,0,0.00,0,0,0,0,43024,50000,2169,49987,0,0,0,0,0.00,0.00,0.00,0.00
2017-07-25 04:10:00,0,47163,0,0.00,0,0,0,0,36808,50000,3933,48656,0,0,0,0,0.00,0.00,0.00,0.00
2017-07-25 04:20:00,0,49681,0,0.00,0,0,0,0,48741,50000,497,50000,0,0,0,0,0.00,0.00,0.00,0.00
2017-07-25 04:30:00,0,48889,0,0.00,0,0,0,0,43570,50000,2119,50000,0,0,0,0,0.00,0.00,0.00,0.00
2017-07-25 04:40:00,0,49959,0,0.00,0,0,0,0,49589,50000,123,50000,0,0,0,0,0.00,0.00,0.00,0.00
2017-07-25 04:50:00,0,49526,0,0.00,0,0,0,0,47759,50000,852,50000,0,0,0,0,0.00,0.00,0.00,0.00
2017-07-25 05:00:00,0,50000,0,0.00,0,0,0,0,50000,50000,0,50000,0,0,0,0,0.00,0.00,0.00,0.00
2017-07-25 05:10:00,0,49980,0,0.00,0,0,0,0,49796,50000,61,50000,0,0,0,0,0.00,0.00,0.00,0.00
2017-07-25 05:20:00,0,49566,0,0.00,0,0,0,0,47553,50000,809,50000,0,0,0,0,0.00,0.00,0.00,0.00
2017-07-25 05:30:00,0,49875,0,0.00,0,0,0,0,49306,50000,252,50000,0,0,0,0,0.00,0.00,0.00,0.00
2017-07-25 05:40:00,0,49763,0,0.00,0,0,0,0,47813,50000,651,50000,0,0,0,0,0.00,0.00,0.00,0.00
2017-07-25 05:50:00,0,50000,0,0.00,0,0,0,0,50000,50000,0,50000,0,0,0,0,0.00,0.00,0.00,0.00
2017-07-25 06:00:00,0,50000,0,0.00,0,0,0,0,50000,50000,0,50000,0,0,0,0,0.00,0.00,0.00,0.00
2017-07-25 06:10:00,0,49685,0,0.00,0,0,0,0,48369,50000,630,50000,0,0,0,0,0.00,0.00,0.00,0.00
2017-07-25 06:20:00,0,49572,0,0.00,0,0,0,0,46711,50000,974,50000,0,0,0,0,0.00,0.00,0.00,0.00
2017-07-25 06:30:00,0,50000,0,0.00,0,0,0,0,50000,50000,0,50000,0,0,0,0,0.00,0.00,0.00,0.00
2017-07-25 06:40:00,0,50000,0,0.00,0,0,0,0,50000,50000,0,50000,0,0,0,0,0.00,0.00,0.00,0.00
2017-07-25 06:50:00,0,50000,0,0.00,0,0,0,0,50000,50000,0,50000,0,0,0,0,0.00,0.00,0.00,0.00
2017-07-25 07:00:00,0,50000,0,0.00,0,0,0,0,50000,50000,0,50000,0,0,0,0,0.00,0.00,0.00,0.00
2017-07-25 07:10:00,0,50000,0,0.00,0,0,0,0,50000,50000,0,50000,0,0,0,0,0.00,0.00,0.00,0.00
2017-07-25 07:20:00,0,49615,0,0.00,0,0,0,0,46149,50000,1155,50000,0,0,0,0,0.00,0.00,0.00,0.00
2017-07-25 07:30:00,0,45632,0,0.00,0,0,0,0,23611,50000,8821,50000,0,0,0,0,0.00,0.00,0.00,0.00
2017-07-25 07:40:00,0,48100,0,0.00,0,0,0,0,38040,50000,3525,50000,0,0,0,0,0.00,0.00,0.00,0.00
2017-07-25 07:50:00,0,48896,0,0.00,0,0,0,0,44315,50000,2168,50000,0,0,0,0,0.00,0.00,0.00,0.00
2017-07-25 08:00:00,0,47647,0,0.00,0,0,0,0,38023,50000,4031,50000,0,0,0,0,0.00,0.00,0.00,0.00
2017-07-25 08:10:00,0,49733,49,0.15,0,0,0,0,47333,50000,800,50000,0,61,24,61,0.00,0.75,0.26,0.00
2017-07-25 08:20:00,0,50000,0,0.00,0,0,0,0,50000,50000,0,50000,0,0,0,0,0.00,0.00,0.00,0.00
2017-07-25 08:30:00,0,49973,0,0.00,0,0,0,0,49731,50000,81,50000,0,0,0,0,0.00,0.00,0.00,0.00
2017-07-25 08:40:00,0,50000,0,0.00,0,0,0,0,50000,50000,0,50000,0,0,0,0,0.00,0.00,0.00,0.00
2017-07-25 08:50:00,0,50000,0,0.00,0,0,0,0,50000,50000,0,50000,0,0,0,0,0.00,0.00,0.00,0.00
2017-07-25 09:00:00,0,49685,0,0.00,0,0,0,0,48249,50000,634,50000,0,0,0,0,0.00,0.00,0.00,0.00
2017-07-25 09:10:00,0,49914,0,0.00,0,0,0,0,49138,50000,259,50000,0,0,0,0,0.00,0.00,0.00,0.00
2017-07-25 09:20:00,0,50000,0,0.00,0,0,0,0,50000,50000,0,50000,0,0,0,0,0.00,0.00,0.00,0.00
2017-07-25 09:30:00,0,50000,0,0.00,0,0,0,0,50000,50000,0,50000,0,0,0,0,0.00,0.00,0.00,0.00
2017-07-25 09:40:00,0,50000,0,0.00,0,0,0,0,50000,50000,0,50000,0,0,0,0,0.00,0.00,0.00,0.00
2017-07-25 09:50:00,0,50000,0,0.00,0,0,0,0,50000,50000,0,50000,0,0,0,0,0.00,0.00,0.00,0.00
2017-07-25 10:00:00,0,50000,0,0.00,0,0,0,0,50000,50000,0,50000,0,0,0,0,0.00,0.00,0.00,0.00
2017-07-25 10:10:00,0,50000,0,0.00,0,0,0,0,50000,50000,0,50000,0,0,0,0,0.00,0.00,0.00,0.00
2017-07-25 10:20:00,0,48385,12,0.05,0,0,0,0,41907,50000,2767,49965,0,61,24,0,0.00,0.40,0.12,0.00
2017-07-25 10:30:00,0,28350,44,0.42,0,0,0,0,10551,50000,14106,25122,0,61,22,52,0.00,2.30,0.77,0.05
2017-07-25 10:40:00,0,49011,0,0.00,0,0,0,0,43751,50000,2058,50000,0,0,0,0,0.00,0.00,0.00,0.00
2017-07-25 10:50:00,0,49982,0,0.00,0,0,0,0,49824,50000,53,50000,0,0,0,0,0.00,0.00,0.00,0.00
2017-07-25 11:00:00,0,50000,0,0.00,0,0,0,0,50000,50000,0,50000,0,0,0,0,0.00,0.00,0.00,0.00
2017-07-25 11:10:00,0,49826,0,0.00,0,0,0,0,48260,50000,522,50000,0,0,0,0,0.00,0.00,0.00,0.00
2017-07-25 11:20:00,0,49832,0,0.00,0,0,0,0,48323,50000,503,50000,0,0,0,0,0.00,0.00,0.00,0.00
2017-07-25 11:30:00,0,50000,0,0.00,0,0,0,0,50000,50000,0,50000,0,0,0,0,0.00,0.00,0.00,0.00
2017-07-25 11:40:00,0,50000,0,0.00,0,0,0,0,50000,50000,0,50000,0,0,0,0,0.00,0.00,0.00,0.00
2017-07-25 11:50:00,0,50000,0,0.00,0,0,0,0,50000,50000,0,50000,0,0,0,0,0.00,0.00,0.00,0.00
2017-07-25 12:00:00,0,50000,0,0.00,0,0,0,0,50000,50000,0,50000,0,0,0,0,0.00,0.00,0.00,0.00
2017-07-25 12:10:00,0,50000,0,0.00,0,0,0,0,50000,50000,0,50000,0,0,0,0,0.00,0.00,0.00,0.00
2017-07-25 12:20:00,0,50000,0,0.00,0,0,0,0,50000,50000,0,50000,0,0,0,0,0.00,0.00,0.00,0.00
2017-07-25 12:30:00,0,50000,0,0.00,0,0,0,0,50000,50000,0,50000,0,0,0,0,0.00,0.00,0.00,0.00
2017-07-25 12:40:00,0,50000,0,0.00,0,0,0,0,50000,50000,0,50000,0,0,0,0,0.00,0.00,0.00,0.00
2017-07-25 12:50:00,0,50000,0,0.00,0,0,0,0,50000,50000,0,50000,0,0,0,0,0.00,0.00,0.00,0.00
2017-07-25 13:00:00,0,50000,0,0.00,0,0,0,0,50000,50000,0,50000,0,0,0,0,0.00,0.00,0.00,0.00
2017-07-25 13:10:00,0,50000,0,0.00,0,0,0,0,50000,50000,0,50000,0,0,0,0,0.00,0.00,0.00,0.00
2017-07-25 13:20:00,0,50000,0,0.00,0,0,0,0,50000,50000,0,50000,0,0,0,0,0.00,0.00,0.00,0.00
2017-07-25 13:30:00,0,49440,0,0.00,0,0,0,0,45130,50000,1453,50000,0,0,0,0,0.00,0.00,0.00,0.00
2017-07-25 13:40:00,0,50000,0,0.00,0,0,0,0,50000,50000,0,50000,0,0,0,0,0.00,0.00,0.00,0.00
2017-07-25 13:50:00,0,49585,0,0.00,0,0,0,0,45849,50000,1245,50000,0,0,0,0,0.00,0.00,0.00,0.00
2017-07-25 14:00:00,0,50000,0,0.00,0,0,0,0,50000,50000,0,50000,0,0,0,0,0.00,0.00,0.00,0.00
2017-07-25 14:10:00,0,47145,0,0.00,0,0,0,0,38851,50000,3909,49184,0,0,0,0,0.00,0.00,0.00,0.00
2017-07-25 14:20:00,0,50000,0,0.00,0,0,0,0,50000,50000,0,50000,0,0,0,0,0.00,0.00,0.00,0.00
2017-07-25 14:30:00,0,50000,0,0.00,0,0,0,0,50000,50000,0,50000,0,0,0,0,0.00,0.00,0.00,0.00
2017-07-25 14:40:00,0,50000,0,0.00,0,0,0,0,50000,50000,0,50000,0,0,0,0,0.00,0.00,0.00,0.00
2017-07-25 14:50:00,0,46015,0,0.00,0,0,0,0,32584,50000,6740,50000,0,0,0,0,0.00,0.00,0.00,0.00
2017-07-25 15:00:00,0,38880,22,0.07,0,0,0,0,23025,50000,11680,44474,0,61,28,0,0.00,0.35,0.12,0.00
2017-07-25 15:10:00,0,32916,38,0.04,0,0,0,0,20217,46566,9775,32364,0,61,25,51,0.00,0.10,0.04,0.03
2017-07-25 15:20:00,0,42758,37,0.36,0,0,0,0,27974,50000,7128,45533,0,61,30,61,0.00,1.90,0.67,0.00
2017-07-25 15:30:00,0,48533,30,0.14,0,0,0,0,41852,50000,2570,50000,0,61,30,30,0.00,0.80,0.24,0.00
2017-07-25 15:40:00,0,50000,15,0.01,0,0,0,0,50000,50000,0,50000,0,51,23,0,0.00,0.10,0.03,0.00
2017-07-25 15:50:00,0,49579,0,0.00,0,0,0,0,47855,50000,713,50000,0,0,0,0,0.00,0.00,0.00,0.00
2017-07-25 16:00:00,0,49691,0,0.00,0,0,0,0,47643,50000,698,50000,0,0,0,0,0.00,0.00,0.00,0.00
2017-07-25 16:10:00,0,49987,0,0.00,0,0,0,0,49872,50000,38,50000,0,0,0,0,0.00,0.00,0.00,0.00
2017-07-25 16:20:00,0,49527,6,0.03,0,0,0,0,47335,50000,956,50000,0,61,18,0,0.00,0.25,0.08,0.00
2017-07-25 16:30:00,0,47175,52,0.68,0,0,0,0,41283,50000,3676,50000,51,61,3,51,0.15,1.35,0.38,0.73
2017-07-25 16:40:00,0,43333,52,0.51,0,0,0,0,34723,50000,5017,43366,51,52,0,52,0.20,1.00,0.26,0.42
2017-07-25 16:50:00,0,29576,55,2.65,0,0,0,0,16664,44082,10275,29589,52,61,4,52,0.45,7.15,2.12,2.05
2017-07-25 17:00:00,0,10900,62,11.74,0,0,0,0,9313,14007,1466,10336,61,62,0,62,7.15,20.25,3.74,10.92
2017-07-25 17:10:00,0,8654,62,23.68,0,0,0,0,6723,10639,1267,8326,62,62,0,62,14.85,39.05,6.96,22.90
2017-07-25 17:20:00,0,9295,62,19.68,0,0,0,0,7979,11005,962,9100,61,62,0,62,7.90,35.00,7.53,18.23
2017-07-25 17:30:00,0,8848,62,25.15,0,0,0,0,6721,11349,1417,8468,62,63,0,62,12.45,41.15,7.40,24.30
2017-07-25 17:40:00,0,13966,61,7.70,0,0,0,0,11595,17774,1809,13374,61,62,0,61,5.55,12.15,2.20,6.70
2017-07-25 17:50:00,0,14662,61,7.70,0,0,0,0,11944,17256,1844,14515,61,62,0,61,5.35,10.70,1.83,6.97
2017-07-25 18:00:00,0,17046,61,5.21,0,0,0,0,14106,19788,2031,16624,61,61,0,61,3.30,8.50,1.54,4.68
2017-07-25 18:10:00,0,31232,61,1.85,0,0,0,0,26878,35805,3152,31006,61,61,0,61,0.90,3.25,0.68,1.80
2017-07-25 18:20:00,0,35661,61,2.16,0,0,0,0,21021,46603,7948,37318,61,61,0,61,0.70,6.65,1.87,1.27
2017-07-25 18:30:00,0,25791,60,1.66,0,0,0,0,21370,31502,3481,24895,52,61,3,61,0.25,2.90,0.87,1.58
2017-07-25 18:40:00,0,19016,52,0.79,0,0,0,0,10587,27970,5145,17943,52,52,0,52,0.35,1.50,0.34,0.68
2017-07-25 18:50:00,0,11898,52,1.02,0,0,0,0,9449,14295,1683,11334,51,52,0,52,0.25,1.50,0.41,1.12
2017-07-25 19:00:00,0,10390,52,0.52,0,0,0,0,8996,13120,1266,10276,51,52,0,52,0.05,1.05,0.31,0.55
2017-07-25 19:10:00,0,30568,47,0.02,0,0,0,0,19027,43534,8105,30086,0,61,24,61,0.00,0.05,0.02,0.00
2017-07-25 19:20:00,0,49050,0,0.00,0,0,0,0,42773,50000,2199,50000,0,0,0,0,0.00,0.00,0.00,0.00
2017-07-25 19:30:00,0,48104,12,0.26,0,0,0,0,39037,50000,3770,50000,0,61,24,0,0.00,2.60,0.78,0.00
2017-07-25 19:40:00,0,32874,61,2.74,0,0,0,0,23771,42575,5748,32002,61,61,0,61,0.75,6.30,1.77,2.35
2017-07-25 19:50:00,0,18966,55,2.16,0,0,0,0,8517,33522,8002,17547,51,61,5,52,0.20,4.30,1.59,2.70
2017-07-25 20:00:00,0,22853,61,2.41,0,0,0,0,11697,38168,7719,22154,61,61,0,61,1.00,4.80,1.06,1.95
2017-07-25 20:10:00,0,28987,61,3.20,0,0,0,0,21085,38942,5759,29048,61,61,0,61,0.80,7.20,1.65,2.90
2017-07-25 20:20:00,0,24951,61,4.87,0,0,0,0,17330,32331,3673,25075,61,62,0,61,0.95,14.00,3.99,3.90
2017-07-25 20:30:00,0,16497,62,9.13,0,0,0,0,12440,23217,3485,15324,61,62,0,62,1.55,19.25,5.36,8.52
2017-07-25 20:40:00,0,20394,61,4.68,0,0,0,0,16826,23912,2287,20206,61,62,0,61,1.90,10.95,2.95,3.53
2017-07-25 20:50:00,0,36997,61,0.98,0,0,0,0,19612,50000,8890,36998,61,61,0,61,0.40,2.15,0.60,0.82
2017-07-25 21:00:00,0,45934,56,0.39,0,0,0,0,36783,50000,4569,48508,51,61,5,56,0.00,0.85,0.30,0.43
2017-07-25 21:10:00,0,32443,41,0.12,0,0,0,0,19981,48249,9289,30672,0,51,20,51,0.00,0.40,0.14,0.08
2017-07-25 21:20:00,0,49445,0,0.00,0,0,0,0,46213,50000,1169,50000,0,0,0,0,0.00,0.00,0.00,0.00
2017-07-25 21:30:00,0,50000,0,0.00,0,0,0,0,50000,50000,0,50000,0,0,0,0,0.00,0.00,0.00,0.00
2017-07-25 21:40:00,0,49135,0,0.00,0,0,0,0,46198,50000,1421,50000,0,0,0,0,0.00,0.00,0.00,0.00
2017-07-25 21:50:00,0,45199,0,0.00,0,0,0,0,38045,50000,4952,47002,0,0,0,0,0.00,0.00,0.00,0.00
2017-07-25 22:00:00,0,21253,0,0.00,0,0,0,0,12015,37097,8291,18140,0,0,0,0,0.00,0.00,0.00,0.00
2017-07-25 22:10:00,0,9336,1,0.00,0,0,0,0,6635,12833,2200,8804,0,10,3,0,0.00,0.00,0.00,0.00
2017-07-25 22:20:00,0,5780,10,0.00,0,0,0,0,2915,9972,2099,5942,10,10,0,10,0.00,0.00,0.00,0.00
2017-07-25 22:30:00,0,5636,10,0.00,0,0,0,0,2996,7568,1235,5442,10,10,0,10,0.00,0.00,0.00,0.00
2017-07-25 22:40:00,0,11379,6,0.00,0,0,0,0,5934,17562,3792,12646,0,10,5,10,0.00,0.00,0.00,0.00
2017-07-25 22:50:00,0,12446,0,0.00,0,0,0,0,7797,16261,2853,12422,0,0,0,0,0.00,0.00,0.00,0.00
2017-07-25 23:00:00,0,14958,0,0.00,0,0,0,0,9697,20802,3343,15125,0,0,0,0,0.00,0.00,0.00,0.00
2017-07-25 23:10:00,0,12302,0,0.00,0,0,0,0,9973,13928,1393,12414,0,0,0,0,0.00,0.00,0.00,0.00
2017-07-25 23:20:00,0,17166,0,0.00,0,0,0,0,13894,24890,3413,16003,0,0,0,0,0.00,0.00,0.00,0.00
2017-07-25 23:30:00,0,11316,0,0.00,0,0,0,0,7396,16807,2813,10217,0,0,0,0,0.00,0.00,0.00,0.00
2017-07-25 23:40:00,0,16361,0,0.00,0,0,0,0,12297,26017,3968,14894,0,0,0,0,0.00,0.00,0.00,0.00
2017-07-25 23:50:00,0,37792,0,0.00,0,0,0,0,18976,49016,8214,39946,0,0,0,0,0.00,0.00,0.00,0.00
